DateTimeUTC,F1_A11,F1_S11,BsB_S11,BsG_S11,BsR_S11,BbsB_S11,BbsG_S11,BbsR_S11,BaB_A11,BaG_A11,BaR_A11,Tu_S11,T_S11,Uu_S11,U_S11,P_S11,T1_A11
2021-04-18T19:00:00Z,00000200,21000000,,,,,,,0000.27,0000.20,0000.13,18.2,25.6,,00.0,0650.6,31.1
2021-04-18T19:01:00Z,00000200,21000000,,,,,,,0000.17,-000.04,-000.07,18.2,25.6,,00.0,0650.6,31.1
2021-04-18T19:02:00Z,00000200,21000000,,,,,,,0000.43,0000.24,0000.00,18.2,25.6,,00.0,0650.6,31.1
2021-04-18T19:03:00Z,00000200,61000000,,,,,,,-000.56,0000.05,-000.12,18.2,25.6,,00.0,0650.6,31.1
2021-04-18T19:04:00Z,00000200,41000000,0001.48,0000.68,0000.70,0000.03,0000.24,0000.26,0005.13,0004.57,0003.63,18.3,25.4,,00.0,0651.6,31.1
2021-04-18T19:05:00Z,00000200,01000000,0000.88,0000.40,0000.49,0000.16,0000.09,-000.03,0000.61,0000.53,0000.67,18.4,25.4,,00.0,0651.7,31.1
2021-04-18T19:06:00Z,00000200,01000000,0000.36,0000.56,0000.26,0000.14,0000.09,-000.18,-000.14,-000.17,0000.09,18.4,25.3,,00.0,0651.7,31.1
2021-04-18T19:07:00Z,00000200,01000000,0000.77,0000.62,0000.36,0000.07,0000.17,-000.03,0000.18,0000.37,0000.02,18.4,25.3,,00.0,0651.7,31.1
2021-04-18T19:08:00Z,00000200,01000000,0001.11,0000.44,0000.67,0000.28,-000.07,-000.20,0000.15,0000.03,0000.20,18.3,25.3,,00.0,0651.7,31.1
2021-04-18T19:09:00Z,00000200,01000000,0000.55,0000.73,0000.40,0000.22,0000.14,0000.20,0000.44,0000.24,-000.12,18.3,25.3,,00.0,0651.7,31.1
2021-04-18T19:10:00Z,00000200,01000000,0000.97,0000.82,0000.11,0000.03,0000.10,-000.23,0000.10,0000.23,0000.19,18.3,25.3,,00.0,0651.7,31.1
2021-04-18T19:11:00Z,00000200,01000000,0000.49,0000.67,0000.41,0000.07,0000.07,0000.06,0000.03,-000.08,0000.01,18.3,25.3,,00.0,0651.7,31.1
2021-04-18T19:12:00Z,00000200,01000000,0000.36,0000.80,0000.35,0000.57,0000.09,0000.05,0000.27,0000.21,0000.18,18.3,25.3,,00.0,0651.7,31.1
2021-04-18T19:13:00Z,00000200,01000000,0000.50,0000.21,0000.38,0000.43,-000.04,0000.03,0000.12,0000.03,0000.08,18.3,25.2,,00.0,0651.7,31.1
2021-04-18T19:14:00Z,00000200,01000000,0001.03,0001.10,0000.84,-000.07,0000.43,0000.07,0009.94,0008.93,0006.81,18.3,25.2,,00.0,0651.7,31.1
2021-04-18T19:15:00Z,00000200,01000000,0008.60,0005.92,0003.73,0001.16,0001.42,0000.99,0094.67,0087.32,0069.04,18.3,25.2,,00.0,0651.7,31.1
2021-04-18T19:16:00Z,00000200,01000000,0001.27,0000.64,0000.61,0000.35,-000.22,-000.05,0010.10,0009.71,0007.75,18.3,25.2,,00.0,0651.6,31.1
2021-04-18T19:17:00Z,00000200,01000000,0006.56,0005.35,0003.43,0000.97,0001.22,0001.02,0077.24,0070.65,0056.45,18.3,25.2,,00.0,0651.6,31.1
2021-04-18T19:18:00Z,00000200,01000000,0002.08,0001.94,0000.86,0000.40,0000.41,-000.08,0023.78,0022.45,0017.69,18.3,25.2,,00.0,0651.6,31.1
2021-04-18T19:19:00Z,00000200,01000000,0000.80,0000.41,0000.36,0000.28,-000.01,-000.02,0001.09,0000.81,0001.08,18.3,25.2,,00.0,0651.6,31.1
2021-04-18T19:20:00Z,00000200,01000000,0001.80,0001.32,0000.57,0000.26,0000.54,-000.11,0006.87,0006.31,0004.44,18.3,25.2,,00.0,0651.7,31.1
2021-04-18T19:21:00Z,00000200,01000000,0006.20,0004.14,0002.95,0001.36,0001.04,0000.62,0075.88,0069.92,0055.94,18.2,25.2,,00.0,0651.7,31.1
2021-04-18T19:22:00Z,00000200,01000000,0006.98,0005.21,0003.62,0001.38,0001.24,0000.74,0082.98,0076.35,0060.00,18.2,25.2,,00.0,0651.6,31.1
2021-04-18T19:23:00Z,00000200,01000000,0006.94,0005.75,0003.63,0001.16,0001.71,0000.80,0093.79,0086.66,0068.88,18.2,25.2,,00.0,0651.7,31.1
2021-04-18T19:24:00Z,00000200,01000000,0012.48,0009.75,0006.51,0002.81,0002.35,0001.87,0165.62,0152.41,0120.89,18.2,25.2,,00.0,0651.7,31.1
2021-04-18T19:25:00Z,00000200,01000000,0016.49,0012.57,0008.26,0003.59,0002.94,0002.11,0217.05,0200.50,0159.63,18.2,25.1,,00.0,0651.7,31.1
2021-04-18T19:26:00Z,00000200,01000000,0009.51,0007.10,0004.46,0002.44,0001.57,0001.17,0131.72,0122.10,0097.97,18.2,25.1,,00.0,0651.7,31.1
2021-04-18T19:27:00Z,00000200,01000000,0002.77,0002.24,0001.37,0000.80,0000.32,0000.26,0040.17,0037.74,0030.11,18.2,25.1,,00.0,0651.7,31.1
2021-04-18T19:28:00Z,00000200,01000000,0001.18,0000.56,0000.56,0000.47,0000.05,0000.07,0002.05,0001.85,0001.54,18.2,25.1,,00.0,0651.7,31.1
2021-04-18T19:29:00Z,00000200,01000000,0000.28,0000.42,0000.28,0000.23,0000.29,0000.20,0001.22,0000.84,0000.86,18.2,25.1,,00.0,0651.7,31.1
2021-04-18T19:30:00Z,00000200,01000000,0000.61,0000.37,0000.09,0000.41,0000.11,-000.13,0001.02,0000.93,0000.55,18.2,25.1,,00.0,0651.7,31.1
2021-04-18T19:31:00Z,00000200,01000000,0000.65,0000.76,0000.29,0000.31,0000.23,0000.12,0000.66,0000.44,0000.47,18.2,25.1,,00.0,0651.7,31.1
2021-04-18T19:32:00Z,00000200,01000000,0000.11,0000.60,0000.31,0000.48,0000.25,-000.11,0000.84,0000.71,0000.78,18.2,25.1,,00.0,0651.7,31.1
2021-04-18T19:33:00Z,00000200,01000000,0000.91,0000.53,0000.32,0000.42,0000.05,-000.12,0000.81,0000.76,0000.49,18.2,25.1,,00.0,0651.7,31.1
2021-04-18T19:34:00Z,00000200,01000000,0000.85,0000.64,0000.47,0000.22,0000.11,0000.09,-000.04,0000.10,-000.04,18.1,25.1,,00.0,0651.7,31.1
2021-04-18T19:35:00Z,00000200,01000000,0000.78,0000.51,0000.30,0000.35,0000.17,0000.11,0001.10,0000.85,0000.83,18.1,25.1,,00.0,0651.7,31.1
2021-04-18T19:36:00Z,00000200,01000000,0000.41,0000.37,-000.02,0000.22,0000.15,0000.09,0000.18,0000.23,0000.17,18.1,25.1,,00.0,0651.7,31.1
2021-04-18T19:37:00Z,00000200,01000000,0000.78,0000.47,0000.52,-000.28,0000.17,-000.12,0000.78,0001.05,0000.59,18.1,25.1,,00.0,0651.7,31.1
2021-04-18T19:38:00Z,00000200,01000000,0000.80,0000.78,0000.30,0000.13,-000.02,0000.27,0000.66,0000.46,0000.45,18.1,25.1,,00.0,0651.7,31.1
2021-04-18T19:39:00Z,00000200,01000000,0000.86,0000.43,0000.64,0000.13,0000.09,0000.06,0000.32,0000.41,0000.16,18.1,25.1,,00.0,0651.7,31.1
2021-04-18T19:40:00Z,00000200,01000000,0001.26,0000.37,0000.39,0000.25,0000.34,0000.01,0000.43,0000.35,0000.07,18.1,25.1,,00.0,0651.7,31.1
2021-04-18T19:41:00Z,00000200,01000000,0000.96,0000.55,0000.55,0000.80,0000.51,0000.01,0000.53,0000.36,0000.58,18.1,25.0,,00.0,0651.7,31.1
2021-04-18T19:42:00Z,00000200,01000000,0000.67,0000.63,0000.27,0000.65,0000.24,-000.14,0000.34,0000.30,-000.06,18.1,25.1,,00.0,0651.7,31.1
2021-04-18T19:43:00Z,00000200,01000000,0000.72,0000.84,0000.42,0000.37,0000.11,-000.15,0000.40,0000.21,0000.66,18.1,25.0,,00.0,0651.7,31.1
2021-04-18T19:44:00Z,00000200,01000000,0001.00,0000.75,0000.12,-000.10,-000.11,-000.03,0000.21,0000.55,-000.10,18.1,25.0,,00.0,0651.7,31.1
2021-04-18T19:45:00Z,00000200,01000000,0000.82,0000.43,0000.33,0000.22,0000.07,-000.16,0000.51,0000.31,0000.43,18.1,25.0,,00.0,0651.7,31.1
2021-04-18T19:46:00Z,00000200,01000000,0000.46,0000.70,0000.52,0000.57,0000.00,-000.10,0000.18,0000.18,0000.55,18.1,25.0,,00.0,0651.7,31.1
2021-04-18T19:47:00Z,00000200,01000000,0000.29,0000.68,0000.42,0000.20,0000.13,0000.24,0000.49,0000.30,0000.01,18.1,25.0,,00.0,0651.7,31.1
2021-04-18T19:48:00Z,00000200,01000000,0000.54,0000.62,0000.43,-000.16,-000.01,0000.12,0000.22,0000.66,0000.03,18.1,25.0,,00.0,0651.7,31.1
2021-04-18T19:49:00Z,00000200,01000000,0000.22,0000.21,0000.19,-000.10,0000.10,0000.11,0000.15,-000.21,0000.11,18.1,25.0,,00.0,0651.8,31.1
2021-04-18T19:50:00Z,00000200,01000000,0000.60,0000.43,0000.47,0000.16,0000.27,-000.12,0000.46,0000.33,0000.19,18.1,25.0,,00.0,0651.7,31.1
2021-04-18T19:51:00Z,00000200,01000000,0000.73,0000.51,0000.43,0000.07,0000.00,-000.03,0000.32,0000.52,0000.56,18.1,25.0,,00.0,0651.7,31.1
2021-04-18T19:52:00Z,00000200,01000000,0000.98,0000.95,0000.35,0000.52,0000.28,0000.10,0000.85,0000.68,0000.22,18.1,25.0,,00.0,0651.7,31.1
2021-04-18T19:53:00Z,00000200,01000000,0000.91,0000.87,0000.31,-000.01,0000.25,-000.10,0000.16,0000.04,0000.55,18.1,25.0,,00.0,0651.7,31.1
2021-04-18T19:54:00Z,00000200,01000000,0001.21,0000.51,0000.29,0000.08,0000.08,0000.07,0000.34,0000.17,-000.34,18.1,25.0,,00.0,0651.7,31.1
2021-04-18T19:55:00Z,00000200,01000000,0000.62,0000.49,0000.57,0000.32,0000.14,0000.16,0000.13,0000.35,0000.24,18.1,25.0,,00.0,0651.7,31.1
2021-04-18T19:56:00Z,00000200,01000000,0000.78,0000.53,0000.34,0000.12,0000.03,0000.15,0000.40,0000.07,0000.46,18.1,25.0,,00.0,0651.7,31.1
2021-04-18T19:57:00Z,00000200,41000000,,,,,,,0000.83,0001.29,0000.72,18.2,25.0,,00.0,0651.7,31.1
2021-04-18T19:58:00Z,00000200,61000000,,,,,,,-000.04,-000.19,-000.04,17.8,25.2,,00.0,0650.8,31.1
2021-04-18T19:59:00Z,00000200,21000000,,,,,,,0000.15,0000.09,-000.07,17.8,25.3,,00.0,0650.8,31.1
